Gary, IN

3:56 AM CDT on April 24, 2018 (GMT -0500)
Gary / Chicago

Weather History for KGYY - February, 2014

Change the Weather History Date:

Tuesday, February 4, 2014

  Actual Average Record
Temperature  
Mean Temperature 14 °F -  
Max Temperature 24 °F 33 °F 53 °F (1973)
Min Temperature 5 °F 14 °F -6 °F (1970)
Degree Days  
Heating Degree Days 50    
Moisture  
Dew Point 13 °F    
Average Humidity 79    
Maximum Humidity 86    
Minimum Humidity 64    
Precipitation  
Precipitation 0.00 in - - ()
Sea Level Pressure  
Sea Level Pressure 30.25 in    
Wind  
Wind Speed 5 mph (NE)    
Max Wind Speed 22 mph    
Max Gust Speed 29 mph    
Visibility 7 miles    
Events Snow    
Averages and records for this station are not official NWS values.
T = Trace of Precipitation, MM = Missing Value Source: NWS Daily Summary

Daily Weather History Graph

Daily Weather History Graph

Search for Another Location

Airport or City:

Astronomy

Feb. 04, 2014 Rise Set
Actual Time 6:58 AM CST 5:09 PM CST
Civil Twilight 6:29 AM CST 5:38 PM CST
Nautical Twilight 5:56 AM CST 6:11 PM CST
Astronomical Twilight 5:23 AM CST 6:43 PM CST
Moon 9:31 AM CST (2/4) 11:08 PM CST (2/4)
Length of Visible Light 11h 09m
Length of Day
10h 10m
Waxing Crescent, 29% of the Moon is Illuminated
Feb 4
Waxing Crescent
Feb 6
First Quarter
Feb 14
Full
Feb 22
Last Quarter
Mar 1
New

Hourly Weather History & Observations

Time (CST) Temp. Windchill Dew Point Humidity Pressure Visibility Wind Dir Wind Speed Gust Speed Precip Events Conditions
12:15 AM 8.4 °F - 2.3 °F 76% 30.38 in 10.0 mi Calm Calm - N/A   Clear
12:35 AM 7.5 °F - 2.7 °F 81% 30.37 in 10.0 mi Calm Calm - N/A   Clear
12:55 AM 5.9 °F - 0.7 °F 79% 30.38 in 10.0 mi Calm Calm - N/A   Clear
1:15 AM 5.0 °F - 0.9 °F 83% 30.38 in 7.0 mi Calm Calm - N/A   Clear
1:35 AM 5.4 °F - 1.0 °F 82% 30.38 in 7.0 mi Calm Calm - N/A   Clear
1:55 AM 6.6 °F - 2.8 °F 84% 30.37 in 7.0 mi Calm Calm - N/A   Clear
2:15 AM 7.0 °F - 3.0 °F 84% 30.38 in 7.0 mi Calm Calm - N/A   Clear
2:35 AM 7.3 °F - 3.0 °F 82% 30.38 in 10.0 mi Calm Calm - N/A   Clear
2:55 AM 6.1 °F - 1.8 °F 82% 30.40 in 7.0 mi Calm Calm - N/A   Clear
3:15 AM 8.2 °F - 3.7 °F 82% 30.40 in 10.0 mi Calm Calm - N/A   Clear
3:35 AM 10.2 °F - 5.9 °F 83% 30.40 in 10.0 mi Calm Calm - N/A   Clear
6:45 AM 12.2 °F - 6.8 °F 79% 30.41 in 10.0 mi North - - N/A   Mostly Cloudy
7:40 AM 12.2 °F - 6.8 °F 79% 30.42 in 10.0 mi Calm Calm - N/A   Overcast
9:45 AM 21.2 °F - 12.2 °F 68% 30.39 in 7.0 mi Calm Calm - N/A   Overcast
10:45 AM 24.8 °F - 14.0 °F 64% 30.36 in 10.0 mi Calm Calm - N/A   Overcast
11:45 AM 24.8 °F 17.9 °F 14.0 °F 64% 30.34 in 10.0 mi Variable 5.8 mph - N/A   Overcast
12:45 PM 24.8 °F 16.9 °F 15.8 °F 69% 30.32 in 10.0 mi Variable 6.9 mph - N/A   Overcast
1:45 PM 24.8 °F 16.9 °F 15.8 °F 69% 30.30 in 10.0 mi ENE 6.9 mph - N/A   Overcast
2:45 PM 24.8 °F 16.9 °F 15.8 °F 69% 30.30 in 10.0 mi NE 6.9 mph - N/A   Overcast
3:45 PM 24.8 °F 19.1 °F 15.8 °F 69% 30.26 in 2.0 mi ENE 4.6 mph - N/A Snow Light Snow
4:45 PM 24.8 °F - 17.6 °F 74% 30.28 in 1.0 mi Calm Calm - N/A Snow Light Snow
5:45 PM 23.0 °F - 17.6 °F 80% 30.23 in 2.0 mi North - - N/A Snow Light Snow
6:45 PM 21.2 °F 10.1 °F 17.6 °F 86% 30.23 in 2.0 mi East 10.4 mph 20.7 mph N/A Snow Light Snow
7:45 PM 23.0 °F 11.1 °F 17.6 °F 80% 30.15 in 1.8 mi East 12.7 mph 25.3 mph N/A Snow Light Snow
8:15 PM 22.5 °F 8.9 °F 18.9 °F 86% 30.11 in 2.0 mi NE 16.1 mph 21.9 mph N/A Snow Light Snow
8:35 PM 22.5 °F 8.9 °F 18.5 °F 85% 30.13 in 2.5 mi ENE 16.1 mph 23.0 mph N/A Snow Light Snow
8:45 PM 23.0 °F 9.2 °F 17.6 °F 80% 30.13 in 4.0 mi ENE 17.3 mph 28.8 mph N/A Snow Light Snow
8:55 PM 22.6 °F 10.7 °F 18.5 °F 84% 30.13 in 4.0 mi NE 12.7 mph 21.9 mph N/A Snow Light Snow
9:15 PM 22.6 °F 10.1 °F 18.3 °F 83% 30.11 in 7.0 mi NE 13.8 mph 21.9 mph N/A Snow Light Snow
9:35 PM 22.8 °F 9.4 °F 18.3 °F 83% 30.13 in 7.0 mi NE 16.1 mph 20.7 mph N/A Snow Light Snow
9:45 PM 23.0 °F 13.9 °F 17.6 °F 80% 30.13 in 7.0 mi East 8.1 mph 28.8 mph N/A Snow Light Snow
9:55 PM 23.0 °F 8.7 °F 18.5 °F 83% 30.12 in 10.0 mi NE 18.4 mph - N/A Snow Light Snow
10:15 PM 23.0 °F 9.2 °F 18.5 °F 83% 30.11 in 7.0 mi NNE 17.3 mph 21.9 mph N/A Snow Light Snow
10:35 PM 23.2 °F 9.0 °F 18.7 °F 83% 30.10 in 4.0 mi NNE 18.4 mph 23.0 mph N/A Snow Light Snow
10:55 PM 23.9 °F 10.3 °F 19.2 °F 82% 30.08 in 5.0 mi NNE 17.3 mph - N/A Snow Light Snow
11:15 PM 24.4 °F 11.5 °F 20.1 °F 84% 30.07 in 4.0 mi NE 16.1 mph - N/A Snow Light Snow
11:35 PM 24.3 °F 9.3 °F 19.8 °F 83% 30.05 in 7.0 mi NE 21.9 mph 27.6 mph N/A Snow Light Snow
11:55 PM 24.6 °F 11.7 °F 20.3 °F 84% 30.06 in 7.0 mi NNE 16.1 mph 25.3 mph N/A Snow Light Snow